User: anonymous
Location: Kitchener
(43.4500°N, 80.5000°W)
Time: 17:19:58
(UTC-04:00)
Language:

ATLAS 5 CENTAUR R/B - Orbit

View from above orbital plane
View from above orbital plane
View from above satellite
View from above satellite

Ground track
Ground track

The orbit data is extracted from the following two-line orbital elements,

1 31702U 07027B   14244.02549994 -.00000200  00000-0 -85773-4 0    07
2 31702  63.3790 312.7437 0158000 350.7717   9.2283 14.18150764    05
Epoch (UTC): 01 September 2014 00:36:43
Eccentricity: 0.0158000
inclination: 63.3790°
perigee height: 718 km
apogee height: 945 km
right ascension of ascending node: 312.7437°
argument of perigee: 350.7717°
revolutions per day: 14.18150764
mean anomaly at epoch: 9.2283°
orbit number at epoch: 0

The dashed part of the orbit path shows where the satellite is in the earth's shadow,  

DLR